Total_Precipitation_Accumulation
0.01 0.10 0.20 0.24 0.32 0.14 0.00 0.00 0.00 0.00 0.00 0.00 0.00 0.00 0.00 0.00 0.05 0.24 0.07 0.01 0.00 0.01 0.01 0.06 0.13 0.10 0.07 0.09 0.17 0.26 0.30 0.35 0.39 0.42 0.41 0.19 0.08 0.08 0.10 0.13 0.16 0.17 0.13 0.13 0.20 0.27 0.25 0.22 0.25
0.04 0.16 0.32 0.46 0.36 0.03 0.00 0.00 0.00 0.00 0.00 0.00 0.00 0.00 0.00 0.00 0.00 0.01 0.01 0.02 0.01 0.01 0.05 0.13 0.17 0.14 0.11 0.13 0.23 0.31 0.37 0.43 0.51 0.51 0.35 0.11 0.07 0.10 0.13 0.17 0.21 0.16 0.09 0.09 0.14 0.20 0.20 0.19 0.23
0.05 0.11 0.32 0.52 0.12 0.00 0.00 0.00 0.00 0.00 0.00 0.00 0.00 0.00 0.00 0.00 0.00 0.01 0.01 0.01 0.00 0.02 0.10 0.22 0.23 0.20 0.17 0.19 0.30 0.41 0.47 0.46 0.52 0.49 0.25 0.11 0.08 0.10 0.16 0.21 0.18 0.10 0.07 0.06 0.08 0.12 0.13 0.14 0.16
0.07 0.18 0.38 0.28 0.03 0.00 0.00 0.00 0.00 0.00 0.00 0.00 0.00 0.00 0.00 0.00 0.00 0.00 0.00 0.00 0.01 0.02 0.07 0.15 0.22 0.21 0.20 0.25 0.36 0.40 0.37 0.38 0.47 0.40 0.25 0.14 0.14 0.15 0.17 0.14 0.08 0.05 0.04 0.04 0.04 0.07 0.08 0.10 0.11
0.09 0.31 0.40 0.14 0.01 0.00 0.00 0.00 0.00 0.00 0.00 0.00 0.00 0.00 0.00 0.00 0.00 0.01 0.00 0.00 0.01 0.01 0.02 0.08 0.17 0.17 0.17 0.25 0.34 0.37 0.31 0.37 0.43 0.41 0.33 0.17 0.17 0.18 0.19 0.10 0.04 0.03 0.03 0.03 0.03 0.04 0.04 0.06 0.09
0.23 0.49 0.47 0.17 0.03 0.00 0.00 0.00 0.00 0.00 0.00 0.00 0.00 0.00 0.01 0.01 0.01 0.01 0.00 0.01 0.01 0.01 0.01 0.04 0.12 0.13 0.15 0.21 0.28 0.32 0.32 0.41 0.42 0.33 0.28 0.24 0.18 0.17 0.13 0.07 0.03 0.02 0.03 0.05 0.02 0.02 0.03 0.05 0.09
0.40 0.61 0.55 0.20 0.04 0.01 0.00 0.00 0.00 0.00 0.00 0.00 0.00 0.00 0.01 0.01 0.01 0.01 0.01 0.01 0.01 0.01 0.01 0.03 0.05 0.08 0.12 0.19 0.23 0.28 0.33 0.42 0.42 0.27 0.22 0.25 0.15 0.10 0.07 0.03 0.01 0.01 0.02 0.04 0.02 0.01 0.03 0.06 0.11
0.23 0.52 0.64 0.28 0.06 0.02 0.01 0.00 0.00 0.00 0.00 0.00 0.00 0.00 0.01 0.01 0.01 0.02 0.03 0.03 0.04 0.04 0.04 0.03 0.03 0.06 0.10 0.15 0.20 0.21 0.24 0.33 0.32 0.22 0.21 0.22 0.13 0.08 0.04 0.01 0.00 0.01 0.02 0.04 0.02 0.02 0.04 0.06 0.09
0.18 0.33 0.48 0.40 0.15 0.06 0.02 0.01 0.01 0.01 0.00 0.00 0.00 0.00 0.00 0.00 0.01 0.02 0.05 0.07 0.09 0.10 0.12 0.09 0.05 0.04 0.09 0.18 0.21 0.26 0.29 0.33 0.30 0.23 0.21 0.16 0.11 0.09 0.05 0.02 0.01 0.02 0.05 0.06 0.03 0.03 0.04 0.04 0.06
0.27 0.33 0.35 0.35 0.20 0.09 0.04 0.02 0.02 0.03 0.02 0.01 0.01 0.01 0.01 0.01 0.02 0.04 0.05 0.08 0.11 0.14 0.17 0.16 0.13 0.07 0.05 0.10 0.24 0.36 0.33 0.26 0.24 0.26 0.20 0.17 0.14 0.14 0.05 0.06 0.07 0.03 0.05 0.06 0.04 0.04 0.02 0.00 0.01
0.25 0.25 0.24 0.27 0.19 0.08 0.05 0.04 0.05 0.05 0.03 0.02 0.02 0.03 0.04 0.05 0.05 0.06 0.08 0.10 0.13 0.17 0.19 0.16 0.12 0.09 0.06 0.10 0.21 0.33 0.40 0.39 0.42 0.30 0.26 0.19 0.12 0.05 0.03 0.05 0.08 0.05 0.06 0.04 0.04 0.03 0.02 0.02 0.01
0.21 0.15 0.17 0.20 0.11 0.08 0.07 0.07 0.08 0.08 0.07 0.06 0.07 0.08 0.09 0.11 0.12 0.13 0.15 0.16 0.17 0.18 0.21 0.20 0.17 0.15 0.11 0.07 0.11 0.18 0.23 0.25 0.26 0.23 0.17 0.14 0.09 0.07 0.05 0.06 0.10 0.08 0.03 0.03 0.05 0.04 0.04 0.04 0.02
0.16 0.11 0.10 0.12 0.10 0.11 0.11 0.12 0.12 0.13 0.11 0.10 0.12 0.13 0.15 0.17 0.17 0.17 0.17 0.18 0.18 0.21 0.25 0.28 0.28 0.26 0.22 0.14 0.11 0.11 0.12 0.15 0.22 0.27 0.17 0.08 0.05 0.06 0.08 0.08 0.14 0.10 0.04 0.05 0.08 0.03 0.03 0.05 0.02
0.16 0.12 0.15 0.16 0.15 0.13 0.13 0.14 0.14 0.15 0.13 0.11 0.15 0.19 0.22 0.23 0.23 0.23 0.21 0.20 0.20 0.28 0.38 0.42 0.40 0.41 0.34 0.22 0.18 0.21 0.20 0.19 0.21 0.21 0.14 0.08 0.05 0.05 0.08 0.07 0.08 0.05 0.06 0.08 0.04 0.04 0.05 0.06 0.01
0.10 0.11 0.12 0.12 0.13 0.14 0.15 0.15 0.15 0.17 0.15 0.14 0.16 0.20 0.24 0.26 0.26 0.27 0.27 0.25 0.24 0.32 0.44 0.54 0.52 0.52 0.45 0.35 0.34 0.36 0.33 0.27 0.24 0.26 0.19 0.13 0.09 0.07 0.11 0.09 0.07 0.07 0.09 0.08 0.08 0.10 0.07 0.07 0.02
0.08 0.10 0.10 0.12 0.15 0.18 0.18 0.20 0.21 0.24 0.20 0.19 0.18 0.19 0.23 0.26 0.28 0.28 0.28 0.28 0.27 0.32 0.42 0.54 0.53 0.57 0.58 0.52 0.49 0.46 0.40 0.35 0.36 0.36 0.32 0.25 0.17 0.12 0.19 0.20 0.16 0.18 0.19 0.14 0.11 0.08 0.06 0.08 0.06
0.09 0.11 0.09 0.13 0.17 0.19 0.20 0.22 0.22 0.23 0.21 0.20 0.18 0.17 0.18 0.20 0.24 0.26 0.26 0.27 0.29 0.34 0.41 0.44 0.50 0.68 0.70 0.64 0.67 0.67 0.62 0.61 0.60 0.59 0.54 0.48 0.38 0.33 0.37 0.43 0.34 0.26 0.28 0.24 0.17 0.12 0.15 0.11 0.11
0.16 0.10 0.11 0.12 0.14 0.15 0.19 0.20 0.20 0.22 0.20 0.19 0.18 0.17 0.16 0.17 0.21 0.23 0.22 0.23 0.25 0.31 0.36 0.42 0.50 0.60 0.71 0.85 0.91 0.98 0.96 0.91 0.97 0.97 0.90 0.71 0.62 0.60 0.63 0.67 0.59 0.46 0.44 0.44 0.31 0.29 0.27 0.25 0.23
0.14 0.11 0.10 0.14 0.14 0.13 0.15 0.17 0.17 0.17 0.16 0.14 0.13 0.12 0.11 0.10 0.13 0.12 0.13 0.16 0.19 0.23 0.29 0.35 0.51 0.65 0.79 0.91 1.03 1.24 1.36 1.41 1.38 1.38 1.38 1.19 0.95 0.94 0.97 0.87 0.93 0.86 0.77 0.75 0.61 0.61 0.57 0.43 0.29
0.10 0.10 0.10 0.12 0.11 0.09 0.10 0.11 0.10 0.10 0.11 0.11 0.09 0.08 0.07 0.06 0.06 0.06 0.06 0.09 0.11 0.14 0.21 0.28 0.41 0.63 0.85 1.06 1.24 1.42 1.67 1.74 1.72 1.78 1.71 1.62 1.44 1.34 1.19 1.15 1.24 1.17 1.17 1.21 1.01 0.98 0.93 0.69 0.45
0.09 0.09 0.09 0.09 0.08 0.07 0.06 0.08 0.07 0.08 0.08 0.07 0.07 0.07 0.07 0.06 0.06 0.05 0.04 0.05 0.06 0.08 0.12 0.19 0.30 0.51 0.80 1.10 1.33 1.51 1.71 1.94 1.99 1.88 1.81 1.81 1.83 1.80 1.60 1.46 1.45 1.38 1.34 1.46 1.44 1.32 1.22 1.07 0.80
0.10 0.08 0.08 0.07 0.08 0.08 0.07 0.11 0.12 0.12 0.13 0.11 0.10 0.11 0.10 0.09 0.09 0.08 0.05 0.04 0.05 0.07 0.10 0.14 0.28 0.42 0.63 0.89 1.17 1.40 1.65 1.93 1.99 1.94 1.91 1.90 1.95 1.96 1.85 1.73 1.66 1.54 1.39 1.44 1.51 1.46 1.45 1.45 1.19
0.05 0.04 0.05 0.06 0.08 0.08 0.07 0.12 0.15 0.15 0.18 0.18 0.18 0.19 0.17 0.14 0.14 0.11 0.09 0.08 0.09 0.10 0.13 0.19 0.31 0.45 0.64 0.86 1.14 1.40 1.60 1.75 1.89 1.88 1.82 1.74 1.74 1.73 1.65 1.67 1.70 1.61 1.48 1.46 1.56 1.62 1.65 1.53 1.41
0.01 0.02 0.04 0.04 0.06 0.06 0.05 0.12 0.21 0.21 0.20 0.18 0.20 0.20 0.16 0.13 0.14 0.15 0.17 0.16 0.15 0.17 0.20 0.28 0.40 0.59 0.75 0.85 0.97 1.09 1.27 1.52 1.62 1.71 1.72 1.72 1.65 1.54 1.45 1.50 1.55 1.53 1.47 1.41 1.43 1.51 1.55 1.57 1.57
0.01 0.05 0.09 0.10 0.13 0.11 0.09 0.20 0.31 0.26 0.21 0.20 0.20 0.18 0.18 0.20 0.24 0.28 0.31 0.32 0.31 0.32 0.39 0.46 0.53 0.60 0.64 0.65 0.71 0.83 0.97 1.12 1.19 1.30 1.48 1.51 1.51 1.44 1.38 1.36 1.43 1.47 1.43 1.45 1.49 1.43 1.38 1.45 1.48
0.01 0.05 0.12 0.16 0.18 0.21 0.25 0.39 0.43 0.35 0.27 0.23 0.20 0.17 0.20 0.27 0.37 0.49 0.55 0.60 0.55 0.52 0.53 0.49 0.49 0.48 0.48 0.50 0.55 0.62 0.69 0.78 0.83 0.86 1.00 1.12 1.11 1.04 0.98 1.02 1.11 1.24 1.30 1.34 1.36 1.35 1.30 1.28 1.27
0.02 0.03 0.06 0.14 0.15 0.21 0.34 0.51 0.50 0.35 0.28 0.26 0.25 0.22 0.27 0.40 0.54 0.69 0.81 0.87 0.81 0.70 0.61 0.56 0.52 0.51 0.45 0.45 0.49 0.53 0.56 0.59 0.60 0.61 0.59 0.62 0.68 0.68 0.66 0.69 0.79 0.91 1.02 1.09 1.13 1.18 1.20 1.17 1.13
0.02 0.04 0.10 0.22 0.33 0.36 0.39 0.52 0.59 0.48 0.37 0.35 0.37 0.43 0.53 0.68 0.76 0.88 0.96 0.93 0.91 0.92 0.82 0.66 0.56 0.56 0.54 0.61 0.58 0.49 0.45 0.43 0.43 0.45 0.49 0.46 0.51 0.57 0.58 0.58 0.62 0.69 0.77 0.86 0.91 0.96 1.00 0.95 0.89
0.09 0.13 0.20 0.32 0.42 0.56 0.68 0.81 0.69 0.56 0.54 0.52 0.54 0.71 0.81 0.89 0.95 0.99 1.05 0.97 0.84 0.80 0.77 0.76 0.69 0.62 0.60 0.69 0.69 0.56 0.48 0.45 0.45 0.42 0.40 0.45 0.54 0.59 0.52 0.53 0.60 0.61 0.64 0.67 0.74 0.85 0.95 0.89 0.83
0.23 0.35 0.45 0.61 0.65 0.63 0.86 1.05 0.78 0.63 0.65 0.66 0.64 0.63 0.65 0.81 0.92 0.96 1.03 0.93 0.76 0.70 0.60 0.65 0.72 0.70 0.69 0.71 0.68 0.60 0.56 0.56 0.59 0.57 0.46 0.46 0.51 0.49 0.49 0.54 0.55 0.54 0.57 0.60 0.67 0.77 0.82 0.82 0.74